Regional Weather Roundup
Issued by NWS

Home | Current Version | Previous Version | Graphics & Text | Print | Product List | Glossary Off
Versions: 1 2 3 4 5 6 7 8 9 10 11 12 13 14 15 16 17 18 19 20 21 22 23 24 25 26 27 28 29 30 31 32 33 34 35 36 37 38 39 40 41 42 43 44 45 46 47 48 49 50

476
ASUS43 KMKX 230200
RWRWI

WISCONSIN REGIONAL WEATHER ROUNDUP
NATIONAL WEATHER SERVICE MILWAUKEE/SULLIVAN WI
800 PM CST WED FEB 22 2017

NOTE: "FAIR" INDICATES FEW OR NO CLOUDS BELOW 12,000 FEET WITH NO
SIGNIFICANT WEATHER AND/OR OBSTRUCTIONS TO VISIBILITY.

WIZ001-002-006>008-014>016-023>028-230300-
NORTHWEST WISCONSIN

CITY           SKY/WX    TMP DP  RH WIND       PRES   REMARKS
SUPERIOR ARPT  LGT RAIN  37  35  94 N9        29.69R WCI  30
ASHLAND        CLOUDY    34  34 100 NE7       29.65F WCI  28
HAYWARD        LGT RAIN  38  34  85 NE8       29.59F WCI  32
SIREN          CLOUDY    42  35  76 N7        29.63R
CUMBERLAND     DRIZZLE   43  41  93 NW6       29.58R
RICE LAKE      CLOUDY    44  42  95 CALM      29.59R
CHETEK         CLOUDY    43  43  98 CALM      29.57S
LADYSMITH      MOCLDY    44  42  93 N7        29.58F
EAU CLAIRE     NOT AVBL
MENOMONIE      MOCLDY    47  41  78 W9        29.58R
NEW RICHMOND   CLOUDY    43  43  98 NW7       29.61R FOG
OSCEOLA        CLOUDY    45  45 100 NW10      29.64R
$$

WIZ003>005-009-010-017-018-230300-
NORTH CENTRAL WISCONSIN

CITY           SKY/WX    TMP DP  RH WIND       PRES   REMARKS
MANITOWISH WTR FOG       36  36 100 CALM      29.58S VSB 1/2
ARBOR VITAE    FOG       42  41  97 CALM        N/A  VSB 1/2
WOODRUFF       FOG       42  41  97 CALM        N/A  VSB 1/2
RHINELANDER    PTCLDY    43  42  97 N5        29.55F
EAGLE RIVER    LGT RAIN  40  40 100 CALM      29.58S VSB 1/2
LAND O LAKES   LGT RAIN  40  40 100 CALM      29.61R VSB 3/4
PHILLIPS       FOG       41  41 100 N6        29.56F VSB 3/4
TOMAHAWK       PTCLDY    41  39  91 CALM      29.55F
MEDFORD        CLEAR     39  38  94 CALM      29.53F
MERRILL        NOT AVBL
$$

WIZ029-030-035-036-043>047-230300-
CENTRAL WISCONSIN

CITY           SKY/WX    TMP DP  RH WIND       PRES   REMARKS
WAUSAU         PTCLDY    44  38  79 CALM      29.52F
MOSINEE        CLEAR     43  39  87 CALM      29.55S
MARSHFIELD     CLEAR     42  38  85 SW3       29.53S
STEVENS POINT  CLOUDY    40  34  80 N5        29.55S
WAUPACA        CLEAR     51  38  59 W3        29.55R
WAUTOMA        CLEAR     42  37  82 CALM      29.55R
WISC RAPIDS    CLEAR     40  36  86 CALM      29.55F
CAMP DOUGLAS   NOT AVBL
$$

WIZ011>013-019>022-031-037>040-048>050-230300-
NORTHEAST WISCONSIN

CITY           SKY/WX    TMP DP  RH WIND       PRES   REMARKS
ANTIGO         MOCLDY    38  35  90 NE8       29.55S WCI  32
SHAWANO        MOCLDY    47  39  74 N3        29.55R
OCONTO         MOCLDY    42  40  90 NE5       29.54F
STURGEON BAY   CLOUDY    40  39  97 E8        29.54F FOG     WCI  34
GREEN BAY      PTCLDY    45  42  89 NE5       29.53F
MANITOWOC      NOT AVBL
APPLETON       MOCLDY    52  39  62 VRB5      29.52F
CLINTONVILLE   MOCLDY    45  36  70 CALM      29.54R
OSHKOSH        PTCLDY    52  40  63 VRB3      29.53S
$$

WIZ032>034-041-042-053>061-230300-
SOUTHWEST WISCONSIN

CITY           SKY/WX    TMP DP  RH WIND       PRES   REMARKS
LA CROSSE      CLEAR     45  39  79 CALM      29.57R
SPARTA         CLEAR     40  36  86 CALM      29.57S
VIROQUA        CLEAR     50  41  71 W5        29.57R
BOSCOBEL       CLEAR     55  43  63 SW8       29.57R
PRAIRIE DU CHI CLEAR     51  42  69 CALM      29.59R
PLATTEVILLE    CLEAR     55  44  66 W10       29.58S
$$

WIZ056-057-062-063-064-067-068-230300-
SOUTH CENTRAL WISCONSIN

CITY           SKY/WX    TMP DP  RH WIND       PRES   REMARKS
REEDSBURG      CLEAR     53  44  72 CALM      29.54S
BARABOO/DELLS  CLEAR     53  42  65 NW5       29.55R
LONE ROCK      NOT AVBL
MINERAL POINT  CLEAR     57  43  58 W6        29.57S
MADISON        CLEAR     57  50  77 S5        29.54S
MIDDLETON      CLEAR     60  51  72 SW7       29.54S
WATERTOWN      MOCLDY    58  53  81 S9        29.54F
MONROE         CLEAR     55  54  94 SW14      29.57S
JANESVILLE     CLEAR     59  52  77 S12       29.57S
$$

WIZ051-052-058>065-066-070>072-230300-
SOUTHEAST WISCONSIN

CITY           SKY/WX    TMP DP  RH WIND       PRES   REMARKS
MILWAUKEE      CLEAR     60  50  69 SW12      29.57S
WAUKESHA       PTCLDY    57  48  72 SW10G18   29.58S
MILWAUKEE/TIMM CLEAR     59  48  67 SW12G17   29.56F
RACINE         CLEAR     60  52  74 SW14      29.58S
KENOSHA        CLEAR     61  53  75 SW14      29.58S
FOND DU LAC    MOCLDY    56  43  61 NE5       29.53S
SHEBOYGAN      CLEAR     44  41  89 NW3       29.53F
WEST BEND      CLEAR     59  52  77 SW13      29.54F
JUNEAU         MOCLDY    58  50  74 S10       29.55S
$$

LSZ147-162-230300-
LAKE SUPERIOR

STATION/POSITION TIME  TEMP    WIND        PRES    WAVE
                       AIR SEA DIR/SP/G            HT/PER
                 (UTC) (F)     (DEG/KT/KT) (MB)    (FT/S)
DEVILS ISLAND    0100   35      10/  6/  6 1005.8R
PORT WING        0030   34      30/  9/ 11 1005.1R
SAXON HARBOR     0030   34     290/  4/  6 1003.4S
$$

LMZ867-665-643>646-230300-
LAKE MICHIGAN

STATION/POSITION TIME  TEMP    WIND        PRES    WAVE
                       AIR SEA DIR/SP/G            HT/PER
                 (UTC) (F)     (DEG/KT/KT) (MB)    (FT/S)
CHAMBERS ISLAND  0140   42      80/  4/  7 1000.7S
NORTHPORT PIER   0130   40     200/  6/ 12 1001.7R
SISTER BAY       0105   41     160/  9/ 11   N/A
KEWAUNEE LAKESHO 0130   39      30/  5/  6 1000.4R
SHEBOYGAN LAKESH 0100   47     190/  7/  9 1000.5R
PORT WASHINGTON  0130   59     230/  6/ 11 1001.7F
MILWAUKEE LAKESH 0130   61     220/ 13/ 15   N/A
KENOSHA   LAKESH 0100   60     200/  9/ 15 1001.7
$$

TC  - TEMPERATURE IN CELSIUS
VSB - VISIBILITY IN STATUTE MILES
WCI - WIND CHILL INDEX
HX  - HEAT INDEX





USA.gov is the U.S. government's official web portal to all federal, state and local government web resources and services.